NFC9353 TXKF-TJSJ

Flight info

Callsign NFC9353
Flight time N/A
Altitude 40000
Route M084F400 SOMRR1 ANTIG M328 EMAKO/M084F390 L456 HANCY/N0481F390 L456 THANK/N0479F400 DCT PLING RTE7 SAALR DCT
Aircraft B77L/H-SDE1E2E3FGHIJ2J3J4J5M1RWXY/LB1D1

Departure

Time 2026-05-06 18:32
Airport L.F. Wade International Airport (TXKF)

Arrival

Time N/A
Airport Luis Munoz Marin International Airport (TJSJ)
Time Latitude Longitude Altitude Speed Heading
2026-05-06 18:11 32.36092 -64.70138 33 ft 0 kts 152°
2026-05-06 18:20 32.36106 -64.70147 38 ft 4 kts 153°
2026-05-06 18:21 32.36128 -64.70162 37 ft 4 kts 127°
2026-05-06 18:21 32.36134 -64.70188 37 ft 4 kts 71°
2026-05-06 18:21 32.36127 -64.70206 31 ft 1 kts 62°
2026-05-06 18:23 32.36128 -64.70205 30 ft 1 kts 62°
2026-05-06 18:23 32.36145 -64.70168 32 ft 10 kts 62°
2026-05-06 18:23 32.36206 -64.70079 33 ft 16 kts 37°
2026-05-06 18:23 32.36294 -64.70001 33 ft 16 kts 38°
2026-05-06 18:24 32.36358 -64.69895 33 ft 16 kts 64°
2026-05-06 18:24 32.36401 -64.69775 33 ft 16 kts 68°
2026-05-06 18:24 32.36443 -64.69654 33 ft 16 kts 68°
2026-05-06 18:24 32.36486 -64.69533 32 ft 16 kts 67°
2026-05-06 18:25 32.36530 -64.69412 31 ft 16 kts 67°
2026-05-06 18:25 32.36577 -64.69281 28 ft 19 kts 67°
2026-05-06 18:25 32.36627 -64.69145 26 ft 18 kts 66°
2026-05-06 18:25 32.36672 -64.69020 28 ft 16 kts 66°
2026-05-06 18:26 32.36713 -64.68896 31 ft 16 kts 84°
2026-05-06 18:26 32.36701 -64.68764 24 ft 16 kts 102°
2026-05-06 18:26 32.36678 -64.68631 32 ft 17 kts 102°
2026-05-06 18:26 32.36654 -64.68496 32 ft 17 kts 102°
2026-05-06 18:27 32.36632 -64.68361 32 ft 17 kts 101°
2026-05-06 18:27 32.36609 -64.68227 32 ft 17 kts 101°
2026-05-06 18:27 32.36587 -64.68092 32 ft 17 kts 101°
2026-05-06 18:27 32.36564 -64.67959 32 ft 17 kts 102°
2026-05-06 18:28 32.36540 -64.67824 32 ft 17 kts 102°
2026-05-06 18:28 32.36516 -64.67690 31 ft 17 kts 102°
2026-05-06 18:28 32.36495 -64.67554 31 ft 17 kts 99°
2026-05-06 18:28 32.36474 -64.67414 31 ft 17 kts 100°
2026-05-06 18:29 32.36448 -64.67275 32 ft 17 kts 103°
2026-05-06 18:29 32.36421 -64.67137 32 ft 17 kts 102°
2026-05-06 18:29 32.36394 -64.66998 32 ft 17 kts 104°
2026-05-06 18:29 32.36370 -64.66859 32 ft 17 kts 100°
2026-05-06 18:30 32.36348 -64.66721 32 ft 17 kts 100°
2026-05-06 18:30 32.36327 -64.66581 33 ft 17 kts 102°
2026-05-06 18:30 32.36297 -64.66443 33 ft 18 kts 108°
2026-05-06 18:30 32.36227 -64.66330 31 ft 18 kts 166°
2026-05-06 18:31 32.36151 -64.66381 28 ft 10 kts 262°
2026-05-06 18:31 32.36171 -64.66526 27 ft 47 kts 281°
2026-05-06 18:31 32.36306 -64.67301 27 ft 143 kts 281°
2026-05-06 18:31 32.36520 -64.68755 266 ft 202 kts 279°
2026-05-06 18:32 32.36700 -64.70497 1192 ft 215 kts 285°
2026-05-06 18:32 32.37057 -64.72228 2564 ft 233 kts 286°
2026-05-06 18:32 32.37449 -64.74145 3590 ft 244 kts 285°
2026-05-06 18:32 32.37817 -64.76139 4720 ft 253 kts 284°
2026-05-06 18:33 32.38181 -64.78221 5827 ft 264 kts 284°
2026-05-06 18:33 32.38548 -64.80382 6961 ft 271 kts 282°
2026-05-06 18:33 32.38704 -64.82618 8143 ft 275 kts 271°
2026-05-06 18:33 32.38594 -64.84896 9391 ft 279 kts 267°
2026-05-06 18:34 32.38434 -64.87193 10560 ft 284 kts 267°
2026-05-06 18:34 32.38271 -64.89609 11253 ft 308 kts 267°
2026-05-06 18:34 32.38105 -64.92275 11553 ft 343 kts 267°
2026-05-06 18:34 32.37938 -64.95172 12042 ft 367 kts 268°
2026-05-06 18:35 32.37770 -64.98219 13101 ft 375 kts 268°
2026-05-06 18:35 32.37605 -65.01306 14265 ft 378 kts 268°
2026-05-06 18:35 32.37441 -65.04425 15312 ft 382 kts 268°
2026-05-06 18:35 32.37275 -65.07586 16329 ft 388 kts 268°
2026-05-06 18:36 32.37169 -65.10791 17321 ft 393 kts 270°
2026-05-06 18:36 32.37161 -65.14044 18302 ft 398 kts 271°
2026-05-06 18:36 32.37185 -65.17295 19148 ft 403 kts 272°
2026-05-06 18:36 32.37213 -65.20633 20028 ft 407 kts 272°
2026-05-06 18:37 32.37232 -65.23996 20905 ft 411 kts 272°
2026-05-06 18:37 32.37244 -65.27397 21754 ft 416 kts 272°
2026-05-06 18:37 32.37248 -65.30836 22570 ft 420 kts 273°
2026-05-06 18:37 32.37247 -65.34313 23384 ft 425 kts 273°
2026-05-06 18:38 32.37244 -65.37829 24103 ft 430 kts 274°
2026-05-06 18:38 32.37239 -65.41386 24760 ft 435 kts 274°
2026-05-06 18:38 32.37233 -65.44974 25429 ft 439 kts 274°
2026-05-06 18:38 32.37225 -65.48602 26100 ft 443 kts 274°
2026-05-06 18:39 32.37217 -65.52260 26774 ft 447 kts 274°
2026-05-06 18:39 32.37207 -65.55952 27406 ft 451 kts 274°
2026-05-06 18:39 32.37197 -65.59684 28026 ft 456 kts 274°
2026-05-06 18:40 32.37172 -65.67181 29245 ft 463 kts 274°
2026-05-06 18:40 32.37169 -65.71007 29815 ft 466 kts 275°
2026-05-06 18:40 32.37179 -65.74849 30366 ft 468 kts 275°
2026-05-06 18:40 32.37192 -65.78699 30970 ft 467 kts 275°
2026-05-06 18:41 32.37204 -65.82526 31669 ft 463 kts 276°
2026-05-06 18:41 32.37212 -65.86323 32351 ft 460 kts 276°
2026-05-06 18:41 32.37220 -65.90098 33005 ft 458 kts 276°
2026-05-06 18:41 32.37226 -65.93866 33592 ft 457 kts 276°
2026-05-06 18:42 32.37230 -65.97615 34203 ft 455 kts 276°
2026-05-06 18:42 32.37233 -66.01355 34720 ft 454 kts 276°
2026-05-06 18:42 32.37236 -66.05030 35183 ft 453 kts 276°
2026-05-06 18:42 32.37237 -66.08758 35656 ft 452 kts 276°
2026-05-06 18:43 32.37237 -66.12473 36106 ft 451 kts 276°
2026-05-06 18:43 32.37236 -66.16179 36572 ft 450 kts 276°
2026-05-06 18:43 32.37234 -66.19884 37032 ft 449 kts 276°
2026-05-06 18:43 32.37230 -66.23570 37504 ft 448 kts 276°
2026-05-06 18:44 32.37225 -66.27251 37923 ft 447 kts 276°
2026-05-06 18:44 32.37220 -66.30925 38333 ft 447 kts 276°
2026-05-06 18:44 32.37214 -66.34600 38747 ft 446 kts 276°
2026-05-06 18:44 32.37208 -66.38267 39099 ft 446 kts 276°
2026-05-06 18:45 32.37199 -66.41885 39402 ft 446 kts 275°
2026-05-06 18:45 32.37103 -66.45548 39635 ft 450 kts 268°
2026-05-06 18:45 32.36324 -66.49188 39814 ft 465 kts 253°
2026-05-06 18:45 32.34742 -66.52568 40051 ft 474 kts 243°
2026-05-06 18:46 32.32890 -66.55828 40126 ft 480 kts 242°
2026-05-06 18:46 32.29127 -66.62365 40166 ft 481 kts 243°
2026-05-06 18:47 32.25440 -66.68909 40165 ft 476 kts 243°
2026-05-06 18:47 32.21849 -66.75378 40167 ft 473 kts 243°
2026-05-06 18:48 32.18249 -66.81869 40174 ft 472 kts 243°
2026-05-06 18:48 32.14648 -66.88344 40175 ft 472 kts 243°
2026-05-06 18:49 32.11041 -66.94818 40176 ft 473 kts 244°
2026-05-06 18:49 32.07417 -67.01310 40176 ft 475 kts 244°
2026-05-06 18:50 32.03810 -67.07799 40165 ft 477 kts 244°
2026-05-06 18:50 32.00170 -67.14349 40175 ft 478 kts 244°
2026-05-06 18:51 31.96516 -67.20914 40176 ft 480 kts 244°
2026-05-06 18:51 31.92844 -67.27493 40167 ft 481 kts 244°
2026-05-06 18:52 31.89162 -67.34081 40179 ft 482 kts 244°
2026-05-06 18:52 31.85493 -67.40635 40162 ft 483 kts 244°
2026-05-06 18:53 31.81792 -67.47232 40175 ft 483 kts 244°
2026-05-06 18:53 31.78090 -67.53820 40174 ft 483 kts 244°
2026-05-06 18:54 31.74385 -67.60401 40173 ft 483 kts 245°
2026-05-06 18:54 31.70677 -67.66980 40181 ft 483 kts 245°
2026-05-06 18:55 31.66991 -67.73510 40177 ft 483 kts 245°
2026-05-06 18:55 31.63274 -67.80081 40176 ft 483 kts 244°
2026-05-06 18:56 31.59555 -67.86646 40182 ft 483 kts 244°
2026-05-06 18:56 31.55832 -67.93206 40179 ft 483 kts 244°
2026-05-06 18:57 31.52106 -67.99763 40180 ft 483 kts 244°
2026-05-06 18:57 31.48402 -68.06273 40183 ft 483 kts 245°
2026-05-06 18:58 31.45004 -68.12993 40188 ft 478 kts 249°
2026-05-06 18:58 31.41087 -68.19332 40171 ft 500 kts 226°
2026-05-06 18:58 31.38054 -68.21450 40173 ft 520 kts 207°
2026-05-06 18:59 31.34496 -68.22424 40181 ft 534 kts 187°
2026-05-06 18:59 31.30766 -68.22145 40181 ft 540 kts 171°
2026-05-06 18:59 31.27090 -68.21223 40188 ft 542 kts 169°
2026-05-06 19:00 31.19778 -68.19252 40176 ft 544 kts 168°
2026-05-06 19:00 31.12387 -68.17341 40180 ft 544 kts 169°
2026-05-06 19:01 31.04988 -68.15540 40170 ft 542 kts 170°
2026-05-06 19:01 30.97607 -68.13786 40166 ft 540 kts 170°
2026-05-06 19:02 30.90264 -68.12043 40163 ft 537 kts 170°
2026-05-06 19:02 30.83004 -68.10313 40165 ft 535 kts 170°
2026-05-06 19:03 30.75728 -68.08579 40165 ft 533 kts 170°
2026-05-06 19:03 30.68461 -68.06849 40160 ft 532 kts 170°
2026-05-06 19:04 30.61211 -68.05127 40164 ft 531 kts 170°
2026-05-06 19:04 30.54015 -68.03420 40170 ft 531 kts 170°
2026-05-06 19:05 30.46763 -68.01703 40165 ft 532 kts 170°
2026-05-06 19:05 30.39504 -67.99986 40168 ft 532 kts 170°
2026-05-06 19:06 30.32242 -67.98271 40170 ft 533 kts 170°
2026-05-06 19:06 30.25021 -67.96569 40169 ft 533 kts 170°
2026-05-06 19:07 30.17748 -67.94857 40166 ft 533 kts 170°
2026-05-06 19:07 30.10478 -67.93147 40158 ft 533 kts 170°
2026-05-06 19:08 30.03217 -67.91443 40163 ft 532 kts 171°
2026-05-06 19:08 29.95963 -67.89743 40163 ft 532 kts 171°
2026-05-06 19:09 29.88713 -67.88046 40162 ft 531 kts 171°
2026-05-06 19:09 29.81527 -67.86367 40159 ft 530 kts 171°
2026-05-06 19:10 29.74300 -67.84680 40162 ft 529 kts 171°
2026-05-06 19:10 29.67083 -67.82999 40164 ft 529 kts 171°
2026-05-06 19:11 29.59870 -67.81322 40161 ft 529 kts 171°
2026-05-06 19:11 29.52709 -67.79658 40151 ft 528 kts 171°
2026-05-06 19:12 29.45504 -67.77987 40154 ft 528 kts 171°
2026-05-06 19:12 29.38301 -67.76319 40156 ft 528 kts 171°
2026-05-06 19:13 29.31092 -67.74651 40136 ft 528 kts 171°
2026-05-06 19:13 29.23893 -67.72989 40150 ft 528 kts 171°
2026-05-06 19:14 29.16743 -67.71340 40156 ft 527 kts 171°
2026-05-06 19:14 29.09551 -67.69684 40156 ft 527 kts 171°
2026-05-06 19:15 29.02360 -67.68030 40141 ft 527 kts 171°
2026-05-06 19:15 28.95167 -67.66378 40157 ft 527 kts 171°
2026-05-06 19:16 28.88029 -67.64741 40144 ft 527 kts 171°
2026-05-06 19:16 28.80842 -67.63095 40155 ft 527 kts 171°
2026-05-06 19:17 28.73653 -67.61451 40163 ft 527 kts 171°
2026-05-06 19:17 28.66463 -67.59809 40145 ft 527 kts 171°
2026-05-06 19:18 28.59273 -67.58170 40139 ft 527 kts 171°
2026-05-06 19:18 28.52128 -67.56542 40153 ft 527 kts 171°
2026-05-06 19:19 28.44935 -67.54907 40131 ft 527 kts 171°
2026-05-06 19:19 28.37752 -67.53275 40146 ft 526 kts 171°
2026-05-06 19:20 28.30579 -67.51647 40133 ft 525 kts 171°
2026-05-06 19:20 28.23427 -67.50024 40129 ft 523 kts 171°
2026-05-06 19:21 28.16343 -67.48419 40123 ft 522 kts 171°
2026-05-06 19:21 28.09222 -67.46807 40129 ft 521 kts 171°
2026-05-06 19:22 28.02116 -67.45202 40133 ft 521 kts 171°
2026-05-06 19:22 27.95007 -67.43598 40137 ft 521 kts 171°
2026-05-06 19:23 27.87940 -67.42005 40116 ft 521 kts 171°
2026-05-06 19:23 27.80824 -67.40404 40131 ft 522 kts 171°
2026-05-06 19:24 27.73701 -67.38803 40134 ft 522 kts 171°
2026-05-06 19:24 27.66569 -67.37202 40129 ft 523 kts 171°
2026-05-06 19:25 27.59475 -67.35611 40114 ft 523 kts 171°
2026-05-06 19:25 27.52334 -67.34012 40125 ft 523 kts 171°
2026-05-06 19:26 27.45184 -67.32414 40126 ft 524 kts 171°
2026-05-06 19:26 27.38030 -67.30817 40125 ft 524 kts 171°
2026-05-06 19:27 27.30880 -67.29222 40102 ft 524 kts 171°
2026-05-06 19:27 27.23776 -67.27640 40116 ft 524 kts 171°
2026-05-06 19:28 27.16629 -67.26050 40120 ft 524 kts 171°
2026-05-06 19:28 27.09479 -67.24462 40120 ft 524 kts 171°
2026-05-06 19:29 27.02323 -67.22876 40107 ft 524 kts 171°
2026-05-06 19:29 26.95167 -67.21295 40130 ft 524 kts 171°
2026-05-06 19:30 26.88068 -67.19727 40111 ft 523 kts 171°
2026-05-06 19:30 26.80932 -67.18153 40114 ft 522 kts 171°
2026-05-06 19:31 26.73811 -67.16584 40094 ft 521 kts 171°
2026-05-06 19:31 26.63160 -67.14242 40112 ft 520 kts 171°
2026-05-06 19:32 26.56113 -67.12695 40109 ft 519 kts 171°
2026-05-06 19:32 26.49025 -67.11141 40110 ft 519 kts 171°
2026-05-06 19:33 26.41934 -67.09588 40097 ft 519 kts 171°
2026-05-06 19:33 26.34842 -67.08036 40104 ft 519 kts 171°
2026-05-06 19:34 26.27797 -67.06497 40107 ft 520 kts 171°
2026-05-06 19:34 26.20701 -67.04949 40105 ft 520 kts 171°
2026-05-06 19:35 26.13595 -67.03400 40094 ft 520 kts 171°
2026-05-06 19:35 26.06490 -67.01854 40114 ft 520 kts 171°
2026-05-06 19:36 25.99382 -67.00308 40102 ft 520 kts 171°
2026-05-06 19:36 25.92322 -66.98775 40099 ft 520 kts 171°
2026-05-06 19:37 25.85219 -66.97235 40114 ft 520 kts 171°
2026-05-06 19:37 25.79308 -66.95954 40113 ft 520 kts 171°
2026-05-06 19:38 25.71001 -66.94157 40095 ft 520 kts 171°
2026-05-06 19:38 25.63898 -66.92622 40098 ft 520 kts 171°
2026-05-06 19:39 25.56843 -66.91100 40112 ft 520 kts 171°
2026-05-06 19:39 25.49743 -66.89569 40104 ft 520 kts 171°
2026-05-06 19:40 25.42656 -66.88043 40109 ft 518 kts 171°
2026-05-06 19:40 25.35587 -66.86523 40102 ft 516 kts 171°
2026-05-06 19:41 25.28543 -66.85010 40106 ft 515 kts 171°
2026-05-06 19:41 25.21567 -66.83514 40098 ft 513 kts 171°
2026-05-06 19:42 25.14560 -66.82013 40106 ft 513 kts 171°
2026-05-06 19:42 25.07561 -66.80515 40107 ft 512 kts 171°
2026-05-06 19:43 25.00560 -66.79018 40105 ft 513 kts 171°
2026-05-06 19:43 24.93596 -66.77531 40101 ft 513 kts 171°
2026-05-06 19:44 24.86588 -66.76037 40107 ft 513 kts 171°
2026-05-06 19:44 24.79572 -66.74542 40103 ft 514 kts 171°
2026-05-06 19:45 24.72556 -66.73049 40107 ft 514 kts 171°
2026-05-06 19:45 24.65538 -66.71557 40095 ft 514 kts 171°
2026-05-06 19:46 24.58566 -66.70077 40104 ft 513 kts 171°
2026-05-06 19:46 24.51554 -66.68590 40107 ft 513 kts 171°
2026-05-06 19:47 24.44540 -66.67105 40109 ft 513 kts 171°
2026-05-06 19:47 24.37524 -66.65620 40109 ft 513 kts 171°
2026-05-06 19:48 24.30517 -66.64139 40101 ft 513 kts 171°
2026-05-06 19:48 24.23560 -66.62671 40111 ft 512 kts 171°